Current weather by "City, St" or "zip code"  
 

Current Conditions: Andrews County Airport, TX

Fair


72.0 F

Last Updated on May 21 2022, 3:15 am CDT
Humidity: 14%
Wind Speed: W 8.1 mph
Barometer 29.76 in
Dewpoint: 20.3 F
Visibility: 10.00 mi
Precip: --
Heat Index: NA
Wind Chill: NA
Current conditions at:

Andrews County Airport, TX (KE11)

Lat: 32.3311 Lon: 102.5295

Local Radar Image active severe weather and emergency alerts image image weather storm and storm spotter reports image weather observation monitoring service image
Local
Radar
Active
Alerts
Storm Reports Obs
Monitoring

Sign-up For Email & Text Message Weather Alert Notification Services



Advertise Here

Observation History for Andrews County Airport, TX


Time Wind
(mph)
Vis
(mi)
Weather Precip (in) Temperature (F) Relative
Humidity
Wind
Chill
(F)
Heat
Index
(F)
Pressure
Air Dwpt altimeter
(in)
sea level
(mb)
Rmks
3:15 am CDT W 8.1 10.00 Fair -- 72.0 20.3 14% NA NA 29.76 M
2:55 am CDT SW 6.9 10.00 Fair -- 71.0 20.8 15% NA NA 29.76 M
2:15 am CDT SW 8.1 10.00 Fair -- 72.0 17.1 12% NA NA 29.77 M
1:55 am CDT SW 8.1 10.00 Fair -- 72.0 17.1 12% NA NA 29.76 M
1:35 am CDT SW 5.8 10.00 Fair -- 72.0 17.6 13% NA NA 29.76 M
1:15 am CDT S 6.9 10.00 Fair -- 72.0 18.0 13% NA NA 29.76 M
12:55 am CDT SW 5.8 10.00 Fair -- 73.0 18.0 12% NA NA 29.75 M
12:15 am CDT SW 5.8 10.00 Fair -- 76.0 18.3 11% NA NA 29.75 M
11:55 pm CDT SW 3.5 10.00 Fair -- 76.0 18.3 11% NA NA 29.74 M
11:35 pm CDT S 5.8 10.00 Fair -- 75.0 20.8 13% NA NA 29.73 M
11:15 pm CDT S 6.9 10.00 Fair -- 77.0 20.8 12% NA NA 29.73 M
10:55 pm CDT S 5.8 10.00 Fair -- 78.0 18.5 10% NA NA 29.71 M
10:35 pm CDT S 6.9 10.00 Fair -- 79.0 19.4 11% NA NA 29.71 M
9:55 pm CDT S 6.9 10.00 Fair -- 83.0 19.2 9% NA 80 29.69 M
9:15 pm CDT SW 5.8 10.00 Fair -- 86.0 20.7 9% NA 83 29.67 M
8:55 pm CDT SW 8.1 10.00 Fair -- 88.0 21.0 9% NA 84 29.67 M
8:35 pm CDT SW 11.5 10.00 Fair -- 90.0 21.0 8% NA 86 29.66 M
8:15 pm CDT SW 13.8 G 21.9 10.00 Fair -- 91.0 21.2 8% NA 87 29.65 M
7:55 pm CDT SW 16.1 G 24.2 10.00 Fair -- 92.0 22.5 8% NA 88 29.65 M
7:35 pm CDT SW 20.7 G 27.6 10.00 Fair and Breezy -- 93.0 22.8 8% NA 88 29.65 M
7:15 pm CDT SW 18.4 G 23.0 10.00 Fair -- 93.0 24.3 8% NA 88 29.64 M
6:55 pm CDT SW 19.6 G 26.5 10.00 Fair -- 93.0 24.4 8% NA 88 29.65 M
5:55 pm CDT SW 12.7 G 26.5 10.00 Fair -- 95.0 24.6 8% NA 90 29.65 M
4:55 pm CDT SW 11.5 G 31.1 10.00 Fair -- 95.0 25.2 8% NA 90 29.65 M

Regional Weather Observation


Andrews County Airport, TX (KE11)

Fair
72.0 F

Midland, Midland Airpark, TX (KMDD)

Fair
69.0 F

Hobbs / Lea County, NM (KHOB)

Fair
64.0 F

Odessa, Odessa-Schlemeyer Field, TX (KODO)

Fair
73.0 F

Lamesa Municipal Airport, TX (KLUV)

Fair
66.0 F

Midland, Midland International Airport, TX (KMAF)

Fair
68.0 F

Advertise Here


Advertise Here